CZ-6A DEB, 54340

Orbit data source: Space-Track

CZ-6A DEB, 54340 is space debris in SSO originally from a launch on Fri, 11 Nov 2022 UTC launched from the Taiyaun Space Center, China (TSC). Debris objects in space refer to the collection of defunct objects orbiting the Earth. Examples of debris include non-operational satellites, rocket bodies, and fragments generated from explosions, collisions, or faulty payload assembly.

Loading next visibility...
Identifier
54340, 2022-151CK
Orbit
SSO
Country
Flag of CNCN / PRC
Related business
Manufacturer
SAST
Mission
Spacecraft
Bus & Motor
Unknown
Mass
Unknown
Launch date (UTC)
2022-11-11 (4 years ago)
Launch vehicle
Unknown
Launch site
Taiyaun Space Center, China (TSC)
Object type
Payload
Rocket body
Debris
Shape & HBR
Unknown shape, 0.1 m
Radar Cross Section
Small (<0.1 m²)

Expand to show TLE details & history
Last TLE update: 2 days ago

TLE from 2 days ago
0 CZ-6A DEB
1 54340U 22151CK  26171.21062098  .00009139  00000-0  11434-2 0  9999
2 54340  98.5927 262.5131 0100566 154.8572 205.7583 14.78976860191937
Epoch: 2026-06-20T05:03Z
TLE epoch observation values (Epoch: 2026-06-20T05:03:17.652Z)
Latitude
-0.00002°
Longitude
-81.73896°
Altitude
699.198 km
Speed
7.472 km/s
True Right ascension
17h 30m 03s
True Declination
0° 00' 00"
Sunlit
Object was in full shadow at epoch
Visualization orbit readout
Latitude
Unknown
Longitude
Unknown
Altitude
Unknown
Speed
Unknown
Apparent Right ascension
Unknown
Apparent Declination
Unknown
Sunlit
N/A
Visualization observer readout
Local Sidereal Time
21:33:03
Azimuth
Unknown
Elevation
Unknown
Doppler factor
Unknown
Orbital elements
Apogee altitude
700.104 km
Perigee altitude
559.155 km
Semi-major axis
7,007.767 km
Eccentricity
0.01006
Inclination
98.5927°
RAAN
262.5131°
Arg. of periapsis
154.8572°
True anomaly
205.26311°
Mean anomaly
205.7583°
Eccentric anomaly
205.51015°
Mean motion
3.69976 °/min
Orbital period
97.3 mins
BSTAR
0.0011434
Loading maneuver chart data...
Computing Atmospheric mass density...
Loading historical data...
Loading historical data...
Loading historical data...
Loading historical data...
Loading historical data...
Loading historical data...
Loading historical data...

Documentation

Showing up to 5 results
|